www.pogodaiklimat.ru

Погода и климат >> Архив погоды >> Молдова >> Каменка


ПОГОДА в Каменке

  • Прогноз погоды в Каменке
  • Монитор погоды в Каменке

АРХИВ ПОГОДЫ в Каменке

Время (UTC), дата Ветер
(напр.,м/с)
 
Видим.   Явления Облачность Т
(С)
Тd
(С)
f
(%)
Тe
(С)
Тes
(С)
Комфортность P
(гПа)
Po
(гПа)
Тmin
(С)
Tmax
(С)
R
(мм)
R24
(мм)
S
(см)
21 16.08 штиль 0 10 км 1/0
[Ci fib]
+14.1 +11.9 87 +14 +14 1015.3 996.7
00 17.08 З 1 10 км ясно +11.9 +9.9 88 +12 +12 1015.5 996.8
03 17.08 З 1 10 км ясно +10.0 +8.5 90 +9 +9 1015.6 996.8
06 17.08 штиль 0 10 км 8/0
[Ac trans]
+14.4 +11.7 84 +14 +18 1016.2 997.6 +9.6
09 17.08 З 2 10 км 6/6 1000 м
[Cu hum]
+22.3 +12.3 53 +25 +30 комфорт 1014.8 996.7
12 17.08 С 3 10 км 6/6 1000 м
[Cu hum]
+25.2 +12.8 46 +27 +31 жарко 1013.5 995.7
15 17.08 С 3 10 км 6/6 1000 м
[Sc]
+24.0 +9.8 41 +25 +26 комфорт 1013.5 995.6
18 17.08 З 1 10 км 3/3 1000 м
[Cu hum]
+19.5 +13.3 67 +22 +22 комфорт 1013.9 995.7 +25.5
21 17.08 штиль 0 10 км ясно +14.2 +10.7 79 +14 +14 1014.9 996.3
00 18.08 штиль 0 10 км ясно +12.9 +11.0 88 +12 +12 1015.7 997.1
03 18.08 штиль 0 10 км ясно +11.6 +10.3 92 +11 +11 1015.8 997.1
06 18.08 штиль 0 10 км ясно +15.7 +12.1 79 +16 +22 1016.1 997.7 +11.5
09 18.08 С 4 10 км 4/4 1000 м
[Cu hum]
+24.7 +13.2 49 +27 +32 жарко 1015.4 997.6
12 18.08 З 4 10 км 3/3 1000 м
[Cu hum]
+27.9 +13.6 41 +30 +35 жарко 1014.6 996.9
15 18.08 штиль 0 10 км ясно +27.7 +14.2 44 +30 +33 жарко 1014.6 996.9
18 18.08 С 2 10 км 1/0
[Ci fib]
+22.5 +14.3 60 +26 +26 жарко 1015.6 997.7 +28.4
21 18.08 штиль 0 10 км ясно +17.7 +13.2 75 +18 +18 1017.0 998.6
00 19.08 С 1 10 км ясно +14.1 +11.1 82 +14 +14 1018.2 999.5
03 19.08 С 1 10 км ясно +10.9 +8.9 87 +11 +11 1019.4 1000.6
06 19.08 штиль 0 10 км ясно +15.4 +11.7 79 +15 +22 1019.7 1001.2 +10.6
09 19.08 Ю 1 10 км ясно +27.8 +14.4 44 +30 +46 жарко 1018.7 1000.9
12 19.08 Ю 2 10 км 3/3 1000 м
[Cu hum]
+30.4 +14.1 37 +32 +40 жарко 1017.6 1000.1
15 19.08 Ю 1 10 км ясно +30.3 +15.2 40 +33 +36 душно 1017.5 1000.0
18 19.08 СВ 2 10 км ясно +25.4 +17.3 61 +29 +29 душно 1018.2 1000.3 +31.1
21 19.08 СВ 1 10 км ясно +19.9 +14.0 69 +23 +23 комфорт 1019.0 1000.7
00 20.08 СВ 1 10 км ясно +16.7 +12.4 76 +18 +18 1019.4 1001.0
03 20.08 С 1 10 км ясно +14.5 +11.3 81 +15 +15 1020.4 1001.7
06 20.08 З 1 10 км ясно +19.4 +14.4 73 +22 +28 комфорт 1021.0 1002.7 +13.4
09 20.08 ЮЗ 1 10 км ясно +30.4 +13.8 36 +32 +48 жарко 1020.4 1002.9
12 20.08 Ю 1 10 км ясно +31.9 +20.6 51 +39 +52 опасность
солнечного
удара
1020.2 1002.8
15 20.08 ЮВ 2 10 км ясно +32.1 +20.2 49 +38 +41 очень
душно
1019.9 1002.5
18 20.08 СВ 1 10 км 3/0
[Ac trans]
+25.6 +16.5 57 +29 +29 душно 1021.2 1003.3 +32.7
21 20.08 В 1 10 км ясно +21.4 +16.4 73 +25 +25 комфорт 1021.9 1003.7
00 21.08 В 1 10 км ясно +19.6 +14.7 73 +23 +23 комфорт 1022.3 1003.9
03 21.08 штиль 0 10 км ясно +14.9 +12.3 84 +15 +15 1022.5 1003.9
06 21.08 штиль 0 10 км ясно +21.7 +16.1 70 +25 +32 комфорт 1022.4 1004.2 +14.7
09 21.08 Ю 2 10 км ясно +31.1 +17.9 45 +35 +49 очень
душно
1021.2 1003.6
12 21.08 Ю 2 10 км ясно +32.6 +17.9 42 +37 +48 очень
душно
1019.3 1001.9
15 21.08 Ю 2 10 км ясно +32.4 +19.4 46 +38 +40 очень
душно
1017.9 1000.1
18 21.08 С 2 10 км ясно +27.6 +15.3 47 +30 +30 жарко 1018.0 1000.2 +33.3
21 21.08 С 3 10 км ясно +22.9 +14.0 57 +26 +26 жарко 1020.2 1002.2
00 22.08 С 1 10 км ясно +18.8 +13.9 73 +21 +21 комфорт 1020.6 1002.3
03 22.08 З 1 10 км ясно +15.1 +12.7 86 +16 +16 1021.3 1002.8
06 22.08 С 1 10 км 4/0
[Ci fib]
+20.6 +17.4 82 +25 +30 комфорт 1021.5 1003.4 +15.0
09 22.08 С 3 10 км 8/0
[Ac trans Ci fib]
+25.8 +20.2 71 +32 +39 очень
душно
1021.7 1003.8
12 22.08 С 2 10 км 9/0
[Ac trans Ci fib]
+27.3 +18.4 58 +32 +39 очень
душно
1022.4 1004.5
15 22.08 С 3 10 км 5/0
[Ac trans Ci fib]
+27.8 +18.1 56 +33 +34 очень
душно
1021.4 1003.6
18 22.08 С 3 10 км 3/0
[Ci fib]
+24.3 +17.2 65 +28 +28 душно 1022.5 1004.5 +28.9
21 22.08 С 1 10 км ясно +19.3 +16.4 83 +22 +22 комфорт 1023.9 1005.5
00 23.08 С 2 10 км ясно +16.6 +14.7 89 +17 +17 1024.3 1005.8
03 23.08 штиль 0 10 км ясно +14.7 +14.0 96 +14 +14 1024.4 1005.8
06 23.08 С 3 10 км 5/0
[Ci fib]
+18.2 +14.8 81 +19 +22 1024.5 1006.1 +14.5
09 23.08 С 3 10 км 8/0
[Ci sp]
+24.4 +16.3 61 +28 +37 душно 1023.8 1005.8
12 23.08 С 2 10 км 3/0
[Ci sp]
+28.8 +17.4 50 +33 +43 очень
душно
1022.8 1005.0
15 23.08 С 3 10 км ясно +28.7 +17.1 49 +32 +34 душно 1022.5 1004.7
18 23.08 С 3 10 км ясно +25.2 +17.0 60 +29 +29 душно 1022.9 1004.9 +30.2

 

Местоположение метеостанции Каменка (Молдова): широта 48.03 долгота 28.70 высота над уровнем моря 154 м.

В архиве по умолчанию представлена погода в Каменке за последнюю неделю. Архивные данные за месяц целиком и за предыдущие месяцы, начиная с января 2011 года, Вы можете получить, выбрав интересующий диапазон дат из раскрывающегося списка и нажав кнопку "Ввод!".


*Определитесь, кто Вы:
робот инопланетянин человек

Внимание! Время в таблицах - всемирное. Для получения местного времени необходимо прибавить поправку, которая равна 2 ч.

Смотрите также архив погоды в соседних городах и на ближайших метеорологических станциях:

Погода в Сороках (Молдова) (35 км)
Погода в Рыбнице (Молдова) (37 км)
Погода в Бельцах (Молдова) (62 км)
Погода в Бравичах (Молдова) (76 км)
Погода в Могилев-Подольском (Винницкая область, Украина) (83 км)
Погода в Дубоссарах (Молдова) (86 км)
Погода в Фалештах (Молдова) (90 км)
Погода в Корнестах (Молдова) (91 км)
Погода в Гайвороне (Кировоградская область, Украина) (94 км)
Погода в Гайсине (Винницкая область, Украина) (100 км)

Пояснения к столбцам:

Ветер - указаны скорость ветра в м/с - средняя за 10 мин, порывы в срок и между сроками (в фигурных скобках) и направление, откуда дует ветер: С - северный, СВ - северо-восточный, В - восточный, ЮВ - юго-восточный, Ю - южный, ЮЗ - юго-западный, З - западный, СЗ - северо-западный.
Видимость - горизонтальная дальность видимости в метрах или километрах. При видимости от 1 до 10 км при отсутствии осадков обычно наблюдается дымка, при ухудшении видимости до 1 км и менее - туман. В сухую погоду видимость может ухудшаться дымом, пылью или мглою.
Явления - указаны атмосферные явления, наблюдавшиеся в срок или в последний час перед сроком; фигурными скобками обозначены явления, наблюдавшиеся между сроками (за 1-3 часа до срока); квадратными скобками обозначены град или гололедные отложения с указанием их диаметра в мм.
Облачность - указаны через наклонную черту общая и нижняя облачность в баллах и высота нижней границы облаков в метрах; квадратными скобками обозначены формы облаков: Ci - перистые, Cs - перисто-слоистые, Cc - перисто-кучевые, Ac - высококучевые, As - высокослоистые, Sc - слоисто-кучевые, Ns - слоисто-дождевые, Cu - кучевые, Cb - кучево-дождевые. Подробнее классификацию облаков см. в Атласе облаков (PDF).
T - Температура воздуха - температура, измеренная на высоте 2 м над землей.
Td - Температура точки росы - температура, при понижении до которой содержащийся в воздухе водяной пар достигнет насыщения.
f - Относительная влажность воздуха - влажноcть воздуха, измеренная на высоте 2 м над землей.
Te - Эффективная температура - температура, которую ощущает одетый по сезону человек в тени. Характеристика душности погоды. При расчете учитывается влияние влажности воздуха и скорости ветра на теплоощущения человека.
Tes - Эффективная температура на солнце - температура, которую ощущает человек, с поправкой на солнечный нагрев. Характеристика знойности погоды. Зависит от высоты солнца над горизонтом, облачности и скорости ветра. Ночью, в пасмурную погоду, а также при ветре 12 м/с и более поправка равна нулю.
P - Атмосферное давление - приведенное к уровню моря атмосферное давление.
Po - Атмосферное давление - измеренное на уровне метеостанции атмосферное давление.
Tmin - Минимальная температура - минимум температуры воздуха на высоте 2 м над землей.
Tmax - Максимальная температура - максимум температуры воздуха на высоте 2 м над землей.
R - Количество осадков - Количество выпавших осадков за период времени, мм. При наведении курсора мыши на число - период времени, за который выпало указанное количество осадков.
R24 - Количество осадков - Количество выпавших осадков за 24 часа, мм.
S - Снежный покров - Высота снежного покрова, см. При наведении курсора мыши на число - состояние снежного покрова и степень покрытия местности в баллах.